This demonstration page uses our WeatherBlox Daily Observations layout. Learn more.

Left ArrowRight Arrow

41.12389, -100.76542

Hourly Observations for May 29, 2017

Temp ( °F °C ) Dew Point ( °F °C ) Humidity (%) Winds ( mph kmh ) Pressure ( in mb ) Visibility ( mi km ) Precip ( " mm )
12:53 am 00:53 Clear 51 10.6 47 8.3 86 86 W 8 13 30.02 1017 10 16 0.00 0.00
1:53 am 01:53 Clear 48 8.9 45 7.2 89 89 W 7 11 30.02 1017 10 16 0.00 0.00
2:53 am 02:53 Clear 44 6.7 43 6.1 96 96 W 6 9 30.05 1018 10 16 0.00 0.00
3:53 am 03:53 Clear 50 10 47 8.3 89 89 WNW 10 17 30.04 1017 10 16 0.00 0.00
4:53 am 04:53 Clear 47 8.3 45 7.2 93 93 NW 8 13 30.04 1017 10 16 0.00 0.00
5:53 am 05:53 Clear 44 6.7 42 5.6 93 93 NW 6 9 30.05 1018 10 16 0.00 0.00
6:53 am 06:53 Sunny 45 7.2 43 6.1 93 93 WNW 7 11 30.08 1019 10 16 0.00 0.00
7:53 am 07:53 Sunny 54 12.2 48 8.9 80 80 WNW 8 13 30.09 1019 10 16 0.00 0.00
8:53 am 08:53 Sunny 58 14.4 50 10 75 75 NW 7 11 30.10 1019 10 16 0.00 0.00
9:53 am 09:53 Sunny 64 17.8 48 8.9 56 56 NW 9 15 30.11 1020 10 16 0.00 0.00
10:53 am 10:53 Sunny 67 19.4 48 8.9 51 51 NNW 7 11 30.10 1019 10 16 0.00 0.00
11:53 am 11:53 Sunny 69 20.6 44 6.7 41 41 NW 9 15 30.11 1020 10 16 0.00 0.00
12:53 pm 12:53 Sunny 71 21.7 44 6.7 38 38 NW 17 28 30.10 1019 10 16 0.00 0.00
1:53 pm 13:53 Sunny 72 22.2 42 5.6 34 34 NNW 16 26 30.09 1019 10 16 0.00 0.00
2:53 pm 14:53 Mostly Sunny 73 22.8 42 5.6 33 33 NW 14 22 30.08 1019 10 16 0.00 0.00
3:53 pm 15:53 Sunny 73 22.8 36 2.2 26 26 N 15 24 30.06 1018 10 16 0.00 0.00
4:53 pm 16:53 Sunny 73 22.8 34 1.1 24 24 NNW 14 22 30.06 1018 10 16 0.00 0.00
5:53 pm 17:53 Sunny 74 23.3 37 2.8 26 26 N 6 9 30.04 1017 10 16 0.00 0.00
6:53 pm 18:53 Sunny 73 22.8 37 2.8 27 27 N 7 11 30.03 1017 10 16 0.00 0.00
7:53 pm 19:53 Sunny 70 21.1 38 3.3 31 31 NNE 7 11 30.02 1017 10 16 0.00 0.00
8:53 pm 20:53 Sunny 61 16.1 41 5 48 48 ENE 3 6 30.04 1017 10 16 0.00 0.00
9:53 pm 21:53 Clear 54 12.2 42 5.6 64 64 E 3 6 30.06 1018 10 16 0.00 0.00
10:53 pm 22:53 Clear 48 8.9 41 5 77 77 Calm 30.09 1019 10 16 0.00 0.00
11:53 pm 23:53 Clear 46 7.8 40 4.4 79 79 Calm 30.09 1019 10 16 0.00 0.00

Powered by AerisWeather